Weather History for Spirit of St Louis, MO

Change the Weather History Date:

Tuesday, November 6, 2012

  Actual Average Record
Temperature  
Mean Temperature 42 °F -  
Max Temperature 48 °F 56 °F 80 °F (1999)
Min Temperature 39 °F 36 °F 23 °F (2010)
Degree Days  
Heating Degree Days 22    
Moisture  
Dew Point 40 °F    
Average Humidity 85    
Maximum Humidity 92    
Minimum Humidity 71    
Precipitation  
Precipitation 0.01 in - - ()
Sea Level Pressure  
Sea Level Pressure 30.00 in    
Wind  
Wind Speed 3 mph (WSW)    
Max Wind Speed 12 mph    
Max Gust Speed -    
Visibility 8 miles    
Events Rain    
Averages and records for this station are not official NWS values.
T = Trace of Precipitation, MM = Missing Value Source: NWS Daily Summary

Daily Weather History Graph

Daily Weather History Graph

Search for Another Location

Airport:

Trip Planner

Search our weather history database for the weather conditions in past years. The results will help you decide how hot, cold, wet, or windy it might be!

Date:

Astronomy

Nov. 06, 2012 Rise Set
Actual Time 6:35 AM CST 4:56 PM CST
Civil Twilight 6:07 AM CST 5:24 PM CST
Nautical Twilight 5:35 AM CST 5:56 PM CST
Astronomical Twilight 5:04 AM CST 6:27 PM CST
Moon 11:35 PM CST (11/6) 12:28 PM CST (11/6)
Length of Visible Light 11h 16m
Length of Day
10h 21m
Waning Gibbous, 53% of the Moon is Illuminated
Nov 6
Waning Gibbous
Nov 6
Last Quarter
Nov 13
New
Nov 20
First Quarter
Nov 28
Full

Hourly Weather History & Observations

Time (CST) Temp. Windchill Dew Point Humidity Pressure Visibility Wind Dir Wind Speed Gust Speed Precip Events Conditions
12:54 AM 42.1 °F - 39.0 °F 89% 30.09 in 3.0 mi Calm Calm - N/A   Overcast
1:54 AM 42.1 °F - 39.0 °F 89% 30.10 in 4.0 mi Calm Calm - N/A   Overcast
2:54 AM 42.1 °F - 39.0 °F 89% 30.07 in 4.0 mi Calm Calm - N/A   Overcast
3:54 AM 42.1 °F - 39.9 °F 92% 30.09 in 3.0 mi Calm Calm - N/A   Overcast
4:54 AM 42.1 °F - 39.0 °F 89% 30.08 in 4.0 mi Calm Calm - N/A   Overcast
5:54 AM 41.0 °F 39.0 °F 37.9 °F 89% 30.04 in 5.0 mi SSE 3.5 mph - N/A   Overcast
6:54 AM 39.9 °F - 37.0 °F 89% 30.06 in 6.0 mi Calm Calm - N/A   Mostly Cloudy
7:54 AM 41.0 °F 39.0 °F 37.9 °F 89% 30.07 in 6.0 mi West 3.5 mph - N/A   Mostly Cloudy
8:54 AM 45.0 °F 42.6 °F 39.9 °F 82% 30.03 in 6.0 mi SSW 4.6 mph - N/A   Haze
9:54 AM 45.0 °F 40.1 °F 39.0 °F 80% 30.06 in 7.0 mi WSW 9.2 mph - N/A   Overcast
10:54 AM 45.0 °F 40.6 °F 39.9 °F 82% 30.04 in 8.0 mi SW 8.1 mph - 0.00 in Rain Light Rain
11:54 AM 46.0 °F 41.4 °F 41.0 °F 83% 29.99 in 10.0 mi SW 9.2 mph - 0.01 in   Overcast
12:20 PM 46.4 °F 43.5 °F 41.0 °F 81% 29.96 in 10.0 mi SW 5.8 mph - N/A   Overcast
12:54 PM 46.0 °F 43.1 °F 41.0 °F 83% 29.96 in 10.0 mi SSW 5.8 mph - 0.00 in Rain Light Rain
1:54 PM 46.9 °F - 42.1 °F 83% 29.94 in 10.0 mi WSW 9.2 mph - N/A   Overcast
2:54 PM 46.9 °F - 42.1 °F 83% 29.94 in 10.0 mi West 10.4 mph - N/A   Overcast
3:54 PM 46.0 °F 41.9 °F 41.0 °F 83% 29.95 in 10.0 mi West 8.1 mph - N/A   Overcast
4:54 PM 46.0 °F 42.5 °F 41.0 °F 83% 29.96 in 10.0 mi West 6.9 mph - N/A   Overcast
5:51 PM 42.8 °F 41.1 °F 37.4 °F 81% 29.96 in 10.0 mi West 3.5 mph - N/A   Mostly Cloudy
5:54 PM 42.1 °F 39.2 °F 37.9 °F 85% 29.97 in 10.0 mi WSW 4.6 mph - N/A   Mostly Cloudy
6:54 PM 42.1 °F 38.4 °F 37.9 °F 85% 29.98 in 10.0 mi WSW 5.8 mph - N/A   Mostly Cloudy
7:54 PM 44.1 °F 41.5 °F 39.9 °F 85% 29.97 in 9.0 mi WSW 4.6 mph - N/A   Overcast
8:54 PM 44.1 °F - 39.9 °F 85% 29.96 in 10.0 mi Calm Calm - N/A   Overcast
9:54 PM 45.0 °F 40.6 °F 41.0 °F 86% 29.95 in 10.0 mi West 8.1 mph - N/A   Overcast
10:54 PM 45.0 °F 40.6 °F 41.0 °F 86% 29.95 in 10.0 mi WSW 8.1 mph - N/A   Overcast
11:54 PM 48.0 °F - 39.0 °F 71% 29.96 in 10.0 mi NNW 11.5 mph - 0.00 in   Overcast